TimeCDT,TemperatureF,Dew PointF,Humidity,Sea Level PressureIn,VisibilityMPH,Wind Direction,Wind SpeedMPH,Gust SpeedMPH,PrecipitationIn,Events,Conditions,WindDirDegrees,DateUTC
12:52 AM,60.1,52.0,75,30.00,10.0,WNW,5.8,-,N/A,,Clear,290,2013-06-17 05:52:00
1:52 AM,59.0,51.1,75,30.01,10.0,West,8.1,-,N/A,,Clear,280,2013-06-17 06:52:00
2:52 AM,57.0,51.1,81,30.01,10.0,WNW,5.8,-,N/A,,Clear,300,2013-06-17 07:52:00
3:52 AM,55.9,51.1,84,30.01,10.0,WNW,8.1,-,N/A,,Clear,290,2013-06-17 08:52:00
4:52 AM,55.9,52.0,87,30.01,10.0,WNW,6.9,-,N/A,,Clear,300,2013-06-17 09:52:00
5:52 AM,55.9,52.0,87,30.03,10.0,NW,10.4,-,N/A,,Clear,320,2013-06-17 10:52:00
6:52 AM,55.9,53.1,90,30.06,10.0,WNW,8.1,-,N/A,,Scattered Clouds,300,2013-06-17 11:52:00
7:02 AM,57.0,53.1,87,30.07,10.0,WNW,10.4,-,N/A,,Mostly Cloudy,290,2013-06-17 12:02:00
7:52 AM,59.0,54.0,83,30.06,10.0,NW,11.5,-,N/A,,Scattered Clouds,310,2013-06-17 12:52:00
8:15 AM,59.0,55.0,87,30.08,10.0,NW,10.4,-,N/A,,Mostly Cloudy,310,2013-06-17 13:15:00
8:52 AM,60.1,55.9,86,30.09,9.0,WNW,6.9,-,N/A,,Overcast,290,2013-06-17 13:52:00
9:31 AM,61.0,55.9,83,30.11,10.0,WNW,5.8,-,N/A,,Overcast,290,2013-06-17 14:31:00
9:41 AM,62.1,55.9,80,30.11,10.0,West,3.5,-,N/A,,Overcast,260,2013-06-17 14:41:00
9:52 AM,62.1,55.9,80,30.10,9.0,WNW,3.5,-,N/A,,Overcast,300,2013-06-17 14:52:00
10:43 AM,66.0,55.9,70,30.11,10.0,WNW,8.1,-,N/A,,Mostly Cloudy,300,2013-06-17 15:43:00
10:52 AM,66.9,55.9,68,30.10,10.0,West,10.4,-,N/A,,Mostly Cloudy,280,2013-06-17 15:52:00
11:52 AM,70.0,53.1,55,30.10,10.0,NW,9.2,-,N/A,,Mostly Cloudy,310,2013-06-17 16:52:00
12:52 PM,69.1,53.1,57,30.10,10.0,NW,11.5,-,N/A,,Overcast,310,2013-06-17 17:52:00
1:52 PM,70.0,53.1,55,30.09,10.0,North,9.2,-,N/A,,Mostly Cloudy,360,2013-06-17 18:52:00
2:52 PM,71.1,53.1,53,30.08,10.0,NW,4.6,-,N/A,,Scattered Clouds,310,2013-06-17 19:52:00
3:52 PM,73.9,52.0,46,30.07,10.0,NW,9.2,-,N/A,,Partly Cloudy,310,2013-06-17 20:52:00
4:52 PM,73.0,51.1,46,30.06,10.0,North,5.8,-,N/A,,Scattered Clouds,350,2013-06-17 21:52:00
5:47 PM,69.8,51.8,53,30.07,10.0,North,19.6,24.2,0.00,Rain-Thunderstorm,Light Rain,350,2013-06-17 22:47:00
5:52 PM,66.0,54.0,65,30.07,6.0,North,16.1,24.2,0.00,Rain-Thunderstorm,Rain,360,2013-06-17 22:52:00
6:10 PM,62.1,55.9,80,30.08,4.0,North,19.6,29.9,0.06,Rain-Thunderstorm,Thunderstorms and Rain,350,2013-06-17 23:10:00
6:33 PM,60.1,55.9,86,30.09,5.0,NNW,8.1,-,0.09,Rain-Thunderstorm,Thunderstorms and Rain,340,2013-06-17 23:33:00
6:52 PM,60.1,55.9,86,30.09,10.0,North,8.1,-,0.10,Rain-Thunderstorm,Light Rain,10,2013-06-17 23:52:00
7:04 PM,60.1,55.9,86,30.07,10.0,NE,4.6,-,0.00,,Mostly Cloudy,40,2013-06-18 00:04:00
7:52 PM,64.0,57.0,78,30.09,10.0,NNE,5.8,-,0.00,,Clear,20,2013-06-18 00:52:00
8:52 PM,64.0,54.0,70,30.08,10.0,NNE,4.6,-,N/A,,Clear,20,2013-06-18 01:52:00
9:52 PM,60.1,55.9,86,30.09,10.0,NNE,5.8,-,N/A,,Clear,30,2013-06-18 02:52:00
10:52 PM,59.0,55.9,90,30.12,10.0,WNW,3.5,-,N/A,,Clear,290,2013-06-18 03:52:00
11:52 PM,57.0,54.0,89,30.09,10.0,Calm,Calm,-,N/A,,Clear,0,2013-06-18 04:52:00